#timestamp,LO_Frequency,Hit 
1500926415.1,286046995.7,N
1500926435.8,286046999.4,N
1500926455.7,286046998.2,N
1500926475.5,286046996.7,N
1500926495.3,286047002.6,N
1500926515.2,286047002.2,N
1500926535.9,286047001.6,N
1500926555.7,286047001.8,N
1500926575.6,286046998.8,N
1500926595.4,286046998.3,N
1500926615.2,286046999.7,N
1500926635.0,286047002.5,N
1500926635.9,286047002.5,N
1500926655.8,286047003.3,N
1500926675.6,286047005.7,N
1500926695.4,286047008.7,Y
1500926715.3,286047009.4,Y
1500926735.1,286047011.6,Y
1500926755.9,286047007.8,N
1500926775.7,286047006.7,N
1500926795.5,286047009.6,N
1500926815.4,286047007.8,N
1500926835.2,286047012.3,Y
1500926855.0,286047007.1,N
1500926855.9,286047007.1,N
1500926875.8,286047007.1,N
1500926895.6,286047003.2,N
1500926915.4,286047005.9,N
1500926935.2,286047008.9,N
1500926955.1,286047012.3,Y
1500926956.0,286047012.3,N
1500926975.8,286047008.7,N
1500926995.7,286047015.3,Y
1500927015.5,286047011.9,N
1500927035.3,286047006.4,N
1500927055.2,286047006.3,N
1500927075.9,286047006.3,N
1500927095.7,286047006.8,N
1500927115.5,286047007.4,N
1500927135.4,286047005.2,N
1500927155.2,286047003.4,N
1500927175.0,286047005.0,N
1500927175.9,286047005.0,N
1500927195.8,286047003.0,N
1500927215.6,286047007.8,N
1500927235.4,286047007.8,N
1500927255.3,286047007.9,N
1500927275.1,286047006.8,N
1500927276.0,286047006.8,N
1500927295.8,286047007.4,N
1500927315.7,286047004.8,N
1500927335.5,286047007.1,N
1500927355.3,286047004.6,N
1500927375.2,286047006.4,N
1500927395.9,286047007.0,N
1500927415.7,286047004.9,N
1500927435.5,286047004.5,N
1500927455.4,286047003.6,N
1500927475.2,286047003.6,N
1500927495.0,286047003.7,N
1500927495.9,286047003.7,N
1500927515.8,286047003.3,N
1500927535.6,286047004.5,N
1500927555.4,286047005.2,N
1500927575.3,286047005.4,N
1500927595.1,286047010.7,Y
1500927596.0,286047010.7,Y
1500927615.8,286046994.2,N
1500927635.7,286046994.5,N
1500927655.5,286046994.4,N
1500927675.3,286046994.4,N
1500927695.2,286046991.7,N
1500927715.9,286046992.1,N
1500927735.7,286046999.5,N
1500927755.6,286047002.2,N
1500927775.4,286047000.8,N
1500927795.2,286046998.8,N
1500927815.0,286047000.8,N
1500927816.0,286047000.8,N
1500927835.8,286047001.0,N
1500927855.6,286047000.8,N
1500927875.4,286046998.3,N
1500927895.3,286047002.8,N
1500927915.1,286046999.6,N
1500927935.8,286046995.5,N
1500927955.7,286046999.1,N
1500927975.5,286046999.3,N
1500927995.3,286047000.5,N
1500928015.2,286047000.8,N
1500928035.9,286046998.6,N
1500928055.7,286047001.2,N
1500928075.6,286047001.2,N
1500928095.4,286046999.1,N
1500928115.2,286046995.0,N
1500928135.0,286047000.9,N
1500928135.9,286047000.9,N
1500928155.8,286047000.1,N
1500928175.6,286047003.4,N
1500928195.4,286047002.7,N
1500928215.3,286046998.3,N
1500928235.1,286046998.3,N
1500928236.0,286046998.3,N
1500928255.8,286046999.3,N
1500928275.7,286046996.1,N
1500928295.5,286046992.7,N
1500928315.3,286046992.2,N
1500928335.2,286046994.8,N
1500928355.9,286046987.1,N
1500928375.7,286046987.5,N
1500928395.5,286046988.2,N
1500928415.4,286046982.9,Y
1500928435.2,286046982.6,Y
1500928455.1,286046985.8,N
1500928456.0,286046985.8,N
1500928475.8,286046990.0,N
1500928495.6,286046988.6,N
1500928515.5,286046992.9,N
1500928535.3,286046992.8,N
1500928555.1,286046991.0,N
1500928575.8,286046988.4,N
1500928595.7,286046985.4,N
1500928615.5,286046987.4,N
1500928635.3,286046990.0,N
1500928655.2,286046992.3,N
1500928675.9,286046988.6,N
1500928695.7,286046987.3,N
1500928715.6,286046986.6,N
1500928735.4,286046986.0,N
1500928755.2,286046985.0,N
1500928775.1,286046991.2,N
1500928776.0,286046991.2,N
1500928795.8,286046993.1,N
1500928815.6,286046993.8,N
1500928835.4,286046996.2,N
1500928855.3,286047002.3,N
1500928875.1,286046998.9,N
1500928895.8,286046998.8,N
1500928915.7,286047004.4,N
1500928935.5,286047004.1,N
1500928955.3,286047003.8,N
1500928975.2,286047002.3,N
1500928995.9,286047001.2,N
1500929015.7,286047001.2,N
1500929035.6,286046998.3,N
1500929055.4,286046999.8,N
1500929075.2,286047001.6,N
1500929095.0,286047001.8,N
1500929095.9,286047001.8,N
1500929115.8,286047002.3,N
1500929135.6,286047002.3,N
1500929155.4,286047007.5,N
1500929175.3,286047002.9,N
1500929195.1,286047003.1,N
1500929196.0,286047003.1,N
1500929215.8,286047001.7,N
1500929235.7,286047002.0,N
1500929255.5,286047005.9,N
1500929275.3,286047003.0,N
1500929295.2,286047005.1,N
1500929315.9,286047001.4,N
1500929335.7,286047002.5,N
1500929355.5,286047004.2,N
1500929375.4,286047001.9,N
1500929395.2,286047002.3,N
1500929415.0,286047002.0,N
1500929415.9,286047002.0,N
1500929435.8,286047004.1,N
1500929455.6,286047001.5,N
1500929475.4,286046998.7,N
1500929495.3,286046999.4,N
1500929515.1,286046998.6,N
1500929516.0,286046998.6,N
1500929535.8,286047001.9,N
1500929555.7,286047005.7,N
1500929575.5,286047006.2,N
1500929595.3,286047008.6,N
1500929615.1,286047008.8,N
1500929635.9,286047005.2,N
1500929655.7,286047004.1,N
1500929675.5,286047007.5,N
1500929695.4,286046999.9,N
1500929715.2,286047001.9,N
1500929735.0,286046999.8,N
1500929735.9,286046999.8,N
1500929755.8,286047004.2,N
1500929775.6,286047004.1,N
1500929795.4,286047001.3,N
1500929815.3,286047001.6,N
1500929835.1,286047012.4,Y
1500929836.0,286047012.4,Y
1500929855.8,286047005.7,N
1500929875.7,286047004.3,N
1500929895.5,286047004.4,N
1500929915.3,286047005.6,N
1500929935.2,286047004.4,N
1500929955.9,286047000.9,N
1500929975.7,286047001.0,N
1500929995.6,286047004.6,N
